Tracking 29892 objects as of 21-Nov-2024
HD Live streaming from Space Station
objects crossing your sky now

CZ-6A DEB

Track CZ-6A DEB now!
10-day predictions


NORAD ID: 54307
Int'l Code: 2022-151BA
Perigee: 641.0 km
Apogee: 764.4 km
Inclination: 98.6 °
Period: 98.7 minutes
Semi major axis: 7073 km
RCS: Unknown
Launch date: November 11, 2022
Source: People's Republic of China (PRC)
Launch site: Taiyaun Space Center, China (TSC)

Note: This is SATELLITE DEBRIS
Your satellite tracking list
Your tracking list is empty




NASA's NSSDC Master Catalog

Two Line Element Set (TLE):
1 54307U 22151BA  24325.02452334  .00031486  00000-0  63065-2 0  9993
2 54307  98.5897 346.3733 0087230 259.7805  99.3548 14.59269889 34671
Source of the keplerian elements: AFSPC